Temperature
20 19 19 19 18 18 17 17 17 17 16 17 17 16 16 17 17 17 16 16 16 16 16 16 16 16 16 16 16 16 16 16 16 16 16 17 17 18 18 18 18 18 18
20 20 20 20 19 18 18 17 16 16 16 16 16 16 16 16 17 17 16 16 15 16 15 15 16 16 16 16 16 16 16 16 16 16 16 17 18 18 18 18 18 18 18
21 21 20 20 20 19 18 17 16 16 15 15 15 15 15 15 16 16 16 15 15 15 15 15 15 16 16 16 16 16 16 16 16 16 16 17 18 18 19 18 18 18 18
21 21 21 20 20 19 18 17 17 16 15 15 14 14 14 14 14 15 15 15 15 15 15 15 15 15 15 15 15 15 16 16 16 16 16 17 17 17 18 18 18 18 18
22 21 21 20 19 19 18 17 17 16 15 14 14 13 13 13 13 13 14 14 14 14 15 15 15 15 15 15 15 15 15 15 16 16 16 16 17 17 17 17 18 18 18
22 21 21 20 19 18 18 17 16 15 14 14 13 13 12 12 12 13 13 13 14 14 14 14 14 14 14 14 15 15 15 15 15 16 16 16 16 17 17 17 18 18 18
22 22 21 20 19 18 18 17 16 15 14 13 13 12 12 12 12 12 13 13 13 13 14 14 14 13 14 14 14 14 14 14 15 15 15 16 16 17 17 17 18 18 18
23 22 21 20 19 18 17 16 15 15 14 13 12 12 12 11 11 11 11 11 12 12 12 13 13 13 13 13 13 13 14 14 14 14 14 15 16 16 17 17 17 18 18
22 22 21 20 19 18 17 16 15 14 13 13 12 12 11 11 10 10 10 10 11 11 11 12 12 12 12 12 12 13 13 13 13 14 14 14 15 15 16 16 17 17 17
22 21 20 19 18 17 16 15 14 13 13 12 11 11 10 10 10 9 9 9 9 10 10 10 11 11 11 12 12 12 12 12 13 13 14 14 14 14 15 16 16 16 17
21 20 19 18 17 16 15 14 14 13 12 12 11 10 10 9 9 9 9 9 9 9 9 9 9 10 10 11 11 11 12 12 12 12 13 13 13 14 14 15 15 16 16
20 19 18 17 16 15 14 14 13 12 12 11 10 10 9 9 9 8 8 8 8 8 8 8 8 9 9 10 10 11 11 11 12 12 12 12 13 13 14 14 15 15 16
19 18 17 16 15 14 14 13 12 12 11 10 10 9 9 9 8 8 8 8 8 8 8 8 8 8 8 9 9 10 10 11 11 11 12 12 12 12 13 13 14 14 15
19 18 17 16 15 14 13 12 12 11 10 10 9 9 9 8 8 8 8 8 7 7 7 7 7 7 7 8 8 9 9 10 11 11 11 11 12 12 12 12 13 13 14
18 17 16 15 14 13 13 12 11 11 10 10 9 9 8 8 8 8 8 7 7 7 7 7 7 7 7 7 8 8 8 9 10 10 11 11 11 11 12 12 12 13 13
18 17 16 15 14 13 12 12 11 11 10 9 9 9 8 8 8 8 8 7 7 7 7 7 6 6 6 7 7 7 8 8 9 9 10 10 11 11 11 11 12 12 12
17 16 15 14 14 13 12 12 11 10 10 9 9 9 8 8 8 8 7 7 7 7 7 6 6 6 6 6 6 7 7 7 8 9 9 10 10 11 11 11 11 11 11
16 15 15 14 13 13 12 11 11 10 9 9 9 8 8 8 8 7 7 7 7 7 7 6 6 6 6 6 6 6 6 7 7 8 9 9 10 10 11 11 11 11 11
16 15 14 14 13 12 12 11 10 10 9 9 8 8 8 7 7 7 7 7 7 7 7 6 6 6 6 6 6 6 6 6 7 8 8 9 9 10 10 10 10 10 10
15 14 14 13 13 12 11 10 10 9 9 8 8 8 7 7 7 7 7 7 7 7 7 6 6 6 6 6 6 6 6 6 6 7 8 8 9 9 10 10 10 10 10
15 14 14 13 12 12 11 10 9 9 8 8 8 7 7 7 7 7 7 7 7 7 7 7 6 6 6 6 6 6 6 6 6 7 8 8 9 9 10 10 10 10 10
15 14 13 13 12 11 10 9 9 8 8 8 8 7 7 7 7 7 7 7 7 7 7 7 6 6 6 6 6 6 6 6 6 7 8 8 9 9 9 10 10 10 10
14 14 13 12 12 11 10 9 8 8 8 7 7 7 7 7 7 7 7 7 7 7 7 6 6 6 6 6 6 6 6 6 7 7 8 8 9 9 9 10 10 10 10
14 13 13 12 11 10 9 8 8 7 7 7 7 7 7 7 7 7 7 7 7 7 7 6 6 6 6 6 6 6 6 7 7 7 7 8 8 9 9 9 10 10 10
14 13 12 11 10 9 8 7 7 7 7 6 6 7 6 6 7 7 7 8 8 7 7 6 6 5 6 6 6 6 6 6 7 7 7 8 8 9 9 9 10 10 10
13 13 12 10 9 8 7 7 7 6 6 6 6 6 6 6 7 7 8 8 8 7 7 7 6 6 6 6 6 6 6 6 7 7 7 8 9 9 9 9 9 10 10
Wind_Speed
10 9 9 10 9 7 6 5 6 6 6 5 6 6 5 5 4 2 4 4 5 6 5 5 4 5 6 7 7 6 5 5 6 6 7 8 10 10 9 9 9 11 11
10 8 8 7 7 6 4 5 5 5 6 5 7 6 6 6 5 2 2 1 4 5 7 5 5 5 6 7 8 6 4 5 6 6 5 4 5 7 11 9 9 9 7
9 6 4 5 5 5 4 5 4 4 6 7 7 8 7 7 6 5 4 1 3 4 4 5 6 6 5 6 7 7 7 6 6 5 4 3 3 3 4 8 7 7 5
6 3 2 4 5 6 6 5 6 6 7 8 9 11 9 9 9 7 7 7 6 6 4 4 5 6 6 6 6 6 6 7 6 5 4 4 1 2 3 2 5 7 6
3 1 3 4 6 7 6 5 6 6 7 8 9 10 9 9 9 9 11 10 9 8 7 5 3 3 5 5 6 6 5 6 7 6 4 4 4 4 3 3 1 3 5
1 2 3 3 4 5 5 5 5 5 6 7 8 9 10 9 11 12 11 9 7 6 6 5 4 3 3 4 5 6 7 6 7 7 5 4 3 4 4 5 4 4 5
3 2 4 5 5 5 5 5 7 7 7 7 7 8 9 10 11 11 9 9 8 8 8 7 2 3 3 4 5 6 6 6 7 7 7 6 5 3 3 3 4 3 4
4 7 8 6 6 6 6 6 6 7 7 7 8 8 10 8 7 9 10 10 9 9 9 8 6 5 6 6 6 5 6 5 5 7 7 7 6 5 3 3 3 3 2
8 9 10 10 8 8 7 6 7 7 6 7 8 8 7 7 9 9 10 9 9 11 11 10 9 8 8 8 7 6 7 6 5 5 6 6 6 6 5 4 3 3 4
10 11 12 11 10 9 7 7 7 7 7 8 7 10 7 7 7 9 10 10 10 9 10 11 10 10 9 9 8 8 8 8 7 6 6 6 6 6 6 5 4 2 4
11 12 11 11 10 10 9 8 8 8 7 8 7 7 8 8 9 8 9 8 9 9 10 10 11 11 11 10 10 10 10 10 9 8 7 7 7 6 7 6 5 3 2
11 11 11 11 10 11 11 10 9 9 8 8 8 8 8 9 9 10 9 9 9 10 10 10 11 12 12 11 11 12 13 12 11 10 9 8 7 8 7 6 6 5 4
10 10 10 10 10 11 11 11 11 11 11 10 9 9 10 10 9 10 10 9 10 10 11 10 10 11 11 12 12 12 12 12 12 12 11 10 9 9 8 8 7 5 5
8 9 8 8 8 9 9 10 11 11 11 11 10 10 10 10 10 10 10 10 10 11 11 10 11 11 12 12 13 13 13 13 12 12 12 11 11 10 9 8 8 7 6
10 10 9 8 8 8 9 9 10 10 10 11 11 11 10 10 10 10 10 11 11 13 11 11 11 12 12 13 13 11 14 13 13 13 12 13 13 14 11 9 8 8 7
12 13 11 11 10 9 10 10 9 10 9 10 12 11 11 11 11 10 11 11 11 11 11 12 13 13 15 15 13 11 10 10 11 12 13 14 12 14 15 13 10 10 10
13 13 12 11 9 9 8 9 9 10 10 11 12 11 11 12 12 14 13 12 12 12 12 12 13 13 14 16 16 15 11 11 10 12 11 15 16 15 12 12 11 9 7
12 12 13 12 11 10 9 9 11 11 12 12 12 12 12 14 13 14 14 13 12 12 12 12 13 13 15 16 15 15 13 12 12 12 11 12 13 12 12 13 12 10 9
11 11 12 13 12 11 9 10 12 12 12 13 13 14 14 15 15 15 15 14 12 12 12 12 12 12 13 15 15 14 11 10 11 12 11 12 13 14 14 13 12 11 10
10 11 12 12 11 10 9 11 13 13 13 13 14 14 14 15 16 16 15 14 12 12 12 12 11 12 12 13 13 13 9 9 9 9 9 12 13 14 15 13 12 11 10
10 11 11 11 10 9 9 11 12 13 13 13 14 15 15 15 16 15 13 13 12 12 12 12 11 11 12 11 12 12 9 8 8 7 7 8 12 13 15 13 10 11 10
11 12 10 10 9 9 9 12 12 12 13 14 15 16 16 16 16 15 15 14 12 12 11 10 10 8 8 8 8 10 11 8 6 6 6 6 12 13 13 9 9 11 9
11 11 12 11 10 10 10 12 12 12 13 15 16 16 17 16 16 15 14 12 10 9 8 8 8 7 6 3 5 7 8 7 4 2 1 4 10 11 10 9 10 9 6
11 11 12 12 11 11 11 11 12 12 13 15 16 15 15 16 15 13 11 9 9 8 8 7 6 7 5 3 1 3 4 5 4 2 3 6 9 8 7 8 7 6 6
10 10 10 11 13 12 12 12 12 11 13 15 15 15 14 15 14 13 10 9 7 5 5 7 6 6 5 4 6 4 2 2 4 5 4 4 5 6 6 7 8 7 6
9 10 11 12 13 13 12 11 11 11 13 13 13 12 12 12 12 12 11 8 6 5 5 5 5 5 2 3 4 5 6 6 4 3 5 6 7 8 8 8 8 9 8
Wind_Direction
108 109 109 109 106 99 89 74 50 33 1 14 341 334 339 335 317 351 53 9 357 339 306 293 267 235 231 233 232 227 234 236 243 253 264 254 228 212 211 210 216 219 217
116 117 121 114 103 95 87 86 52 25 4 4 316 310 331 316 303 7 6 358 7 333 325 330 300 275 251 241 236 228 230 240 233 225 247 265 251 216 211 201 209 219 212
123 120 105 87 74 66 53 51 45 24 14 349 329 338 327 313 315 333 308 349 332 303 302 316 317 310 289 259 242 230 226 237 252 233 213 247 279 306 206 194 200 196 202
128 107 46 36 22 17 16 36 41 38 22 4 348 338 324 322 328 330 328 330 310 286 273 279 313 325 315 304 278 245 234 233 244 252 229 235 291 297 343 235 201 185 191
124 85 343 4 5 1 360 19 48 43 27 5 348 338 332 332 327 325 315 309 298 279 256 229 239 303 311 331 323 314 278 248 243 246 240 230 230 221 230 264 259 187 182
259 290 327 356 13 358 353 358 13 20 10 348 332 327 327 325 316 303 294 295 293 294 295 263 198 232 295 330 323 313 297 279 266 261 257 237 215 219 224 231 226 205 205
279 324 353 350 351 347 354 355 356 358 349 332 323 326 320 308 297 301 319 328 322 318 313 311 251 236 261 282 284 288 288 284 276 269 263 261 255 247 243 238 239 211 193
337 348 343 349 355 353 356 353 351 344 337 330 325 316 299 300 316 330 327 313 303 298 301 315 308 277 256 257 262 276 278 271 267 270 270 268 269 272 265 256 256 249 209
350 346 354 356 356 357 359 356 350 341 334 326 315 301 312 332 324 314 303 303 310 311 317 320 309 295 277 259 252 254 266 271 262 259 258 259 264 271 270 269 258 221 219
351 354 350 345 350 351 355 356 351 342 332 323 323 325 333 320 314 314 309 304 301 300 304 303 297 291 284 271 254 247 250 245 240 240 240 240 247 258 267 268 273 258 209
351 345 342 346 347 345 347 347 342 336 330 331 334 329 323 321 313 305 303 309 310 309 304 301 299 294 287 279 267 254 250 251 247 238 233 229 229 238 249 255 250 257 255
346 342 343 346 343 340 339 336 337 332 335 336 331 325 321 316 313 312 313 310 306 305 303 300 298 294 289 283 276 266 255 243 241 237 230 228 222 221 233 243 243 236 225
345 345 345 343 337 336 333 332 330 331 331 327 323 320 316 313 310 309 306 304 301 297 297 294 293 292 292 289 284 277 268 257 244 237 229 222 215 214 216 223 230 234 230
349 345 343 339 336 331 333 328 325 328 324 324 319 313 310 309 307 304 302 300 298 294 290 289 288 286 284 284 283 278 272 265 256 244 235 226 216 211 208 214 217 216 221
339 340 337 332 331 331 329 324 325 324 322 318 312 308 305 304 301 299 297 295 293 294 294 292 288 284 281 275 271 273 273 271 265 255 243 234 221 209 204 208 209 207 210
339 335 333 333 329 327 322 322 320 319 317 311 308 304 302 300 299 298 296 296 296 294 290 286 283 280 279 282 288 287 285 283 277 267 254 245 233 217 202 203 200 201 208
335 336 336 328 323 320 321 319 319 321 317 311 308 307 307 306 305 306 306 302 300 297 291 286 281 277 274 272 269 267 267 266 265 260 253 245 235 215 202 195 188 193 202
339 337 328 322 320 323 322 320 321 320 318 316 313 313 311 308 307 305 301 300 299 294 290 284 281 277 274 268 259 255 258 258 255 252 246 241 245 229 203 196 198 201 200
338 327 321 318 319 318 322 321 317 319 320 319 318 316 313 309 306 303 301 300 297 293 291 288 281 278 275 268 258 249 259 254 253 249 239 233 234 235 207 195 193 196 199
330 323 319 318 317 322 324 318 315 317 318 320 318 314 310 308 305 300 298 298 296 293 292 289 286 283 278 269 256 246 252 249 249 245 237 232 230 225 201 194 191 194 196
327 325 324 321 321 323 325 317 316 318 322 320 315 311 309 307 302 298 298 298 296 295 294 291 288 284 279 271 254 238 238 240 242 239 232 222 209 209 199 193 188 193 188
329 329 323 321 324 329 327 319 319 323 322 319 315 313 311 309 306 303 299 297 296 297 295 294 295 292 285 273 255 231 225 232 236 239 233 206 183 187 190 188 175 172 175
329 326 325 324 328 333 331 323 324 325 322 319 316 314 313 309 305 301 299 300 300 299 300 302 305 306 302 278 239 224 215 212 215 218 221 169 172 177 184 183 165 167 181
325 326 326 325 328 334 335 331 327 325 321 317 316 316 314 311 308 304 300 301 305 306 309 313 315 316 322 334 320 211 189 158 149 135 126 150 164 185 181 167 176 197 202
323 326 325 328 332 338 336 330 328 328 323 318 316 316 313 310 308 305 301 301 303 300 300 312 316 322 337 15 20 19 46 132 144 155 159 166 173 188 192 186 188 199 208
325 328 331 332 333 333 330 328 330 332 323 317 316 314 313 311 308 308 307 292 279 255 252 262 283 304 339 4 29 51 60 67 80 156 187 195 194 197 199 199 198 200 205
Height
1516 1517 1517 1517 1517 1517 1517 1516 1515 1514 1513 1512 1511 1509 1508 1506 1504 1503 1500 1498 1497 1496 1495 1493 1493 1492 1491 1491 1491 1491 1492 1493 1494 1495 1495 1495 1495 1494 1495 1496 1497 1498 1500
1516 1517 1518 1518 1518 1518 1517 1516 1515 1513 1512 1511 1509 1508 1506 1504 1503 1500 1498 1496 1494 1493 1492 1490 1489 1488 1488 1488 1488 1488 1489 1489 1491 1492 1493 1492 1492 1490 1490 1491 1493 1494 1497
1516 1517 1518 1518 1518 1518 1517 1516 1513 1512 1510 1508 1507 1505 1502 1501 1499 1497 1496 1494 1491 1490 1489 1487 1486 1484 1484 1484 1485 1486 1486 1486 1487 1488 1489 1489 1488 1487 1487 1488 1490 1492 1494
1515 1516 1517 1517 1517 1517 1516 1514 1512 1510 1507 1505 1503 1501 1499 1497 1495 1493 1492 1490 1488 1487 1486 1484 1483 1481 1481 1480 1481 1481 1482 1483 1483 1484 1485 1486 1486 1487 1486 1487 1488 1489 1491
1514 1515 1516 1516 1515 1515 1514 1513 1510 1507 1504 1502 1501 1498 1496 1494 1491 1489 1487 1485 1484 1483 1482 1481 1479 1478 1477 1477 1476 1477 1478 1479 1480 1481 1481 1482 1483 1484 1485 1486 1487 1487 1489
1512 1513 1513 1513 1513 1512 1511 1510 1507 1505 1502 1500 1498 1496 1493 1490 1487 1484 1483 1481 1480 1479 1479 1478 1476 1475 1475 1474 1473 1473 1473 1474 1475 1476 1477 1478 1479 1480 1481 1483 1484 1485 1486
1509 1510 1510 1511 1510 1509 1508 1506 1504 1502 1499 1497 1495 1492 1490 1487 1484 1481 1479 1477 1475 1475 1474 1474 1472 1471 1471 1471 1470 1469 1469 1468 1469 1470 1471 1474 1475 1476 1478 1480 1481 1482 1483
1506 1508 1508 1508 1507 1506 1505 1503 1501 1499 1496 1494 1491 1488 1486 1483 1480 1478 1475 1473 1471 1470 1470 1469 1468 1467 1466 1466 1466 1466 1465 1465 1464 1464 1466 1468 1470 1472 1473 1475 1477 1478 1480
1505 1506 1506 1506 1505 1504 1502 1500 1497 1495 1492 1490 1487 1484 1481 1478 1475 1472 1470 1468 1466 1465 1463 1462 1461 1461 1461 1461 1461 1460 1460 1460 1460 1460 1460 1461 1463 1466 1468 1470 1472 1475 1476
1504 1505 1505 1504 1503 1501 1499 1497 1494 1491 1488 1485 1482 1480 1476 1473 1470 1467 1465 1462 1460 1459 1457 1456 1455 1455 1455 1455 1455 1455 1455 1455 1455 1455 1455 1455 1457 1459 1462 1464 1467 1469 1472
1503 1504 1503 1502 1500 1498 1496 1493 1491 1488 1485 1481 1478 1474 1471 1468 1465 1462 1460 1457 1455 1453 1451 1449 1448 1448 1448 1448 1448 1448 1449 1449 1449 1449 1449 1450 1451 1453 1455 1458 1461 1464 1467
1502 1502 1501 1499 1497 1495 1493 1490 1487 1484 1481 1477 1473 1470 1466 1463 1460 1457 1455 1452 1449 1447 1445 1443 1441 1440 1440 1440 1440 1441 1442 1442 1443 1443 1444 1444 1445 1446 1448 1451 1454 1457 1461
1500 1500 1498 1496 1494 1492 1489 1487 1484 1481 1477 1473 1469 1465 1462 1459 1456 1453 1450 1447 1444 1441 1439 1437 1435 1433 1432 1432 1431 1432 1433 1434 1435 1436 1437 1438 1439 1439 1441 1444 1447 1450 1454
1498 1497 1495 1493 1491 1489 1486 1483 1480 1477 1473 1469 1465 1461 1458 1455 1451 1448 1445 1442 1439 1435 1433 1430 1428 1426 1425 1424 1423 1423 1424 1425 1426 1428 1430 1431 1432 1433 1435 1436 1439 1443 1447
1495 1494 1492 1490 1487 1485 1482 1479 1476 1472 1468 1464 1461 1457 1454 1451 1447 1443 1440 1436 1433 1430 1427 1424 1421 1419 1417 1416 1415 1415 1415 1416 1417 1419 1421 1423 1425 1427 1429 1430 1433 1436 1439
1492 1491 1489 1486 1484 1481 1478 1475 1472 1468 1464 1460 1457 1453 1450 1446 1442 1438 1435 1431 1427 1424 1420 1417 1413 1411 1409 1408 1407 1406 1406 1406 1407 1409 1412 1415 1418 1420 1422 1424 1427 1430 1433
1490 1488 1486 1483 1480 1477 1474 1471 1468 1464 1460 1456 1452 1448 1445 1441 1437 1433 1429 1425 1421 1417 1413 1409 1406 1402 1400 1398 1397 1396 1396 1396 1397 1400 1403 1408 1411 1413 1416 1418 1421 1423 1426
1488 1485 1483 1480 1477 1473 1470 1467 1463 1460 1456 1452 1447 1443 1439 1435 1431 1426 1422 1418 1414 1410 1406 1402 1398 1394 1392 1390 1388 1387 1387 1387 1388 1391 1395 1399 1403 1406 1409 1412 1414 1417 1420
1485 1483 1480 1476 1473 1469 1466 1462 1459 1455 1451 1447 1442 1438 1433 1428 1424 1419 1415 1412 1408 1403 1399 1395 1391 1387 1383 1381 1380 1379 1378 1378 1380 1383 1387 1391 1395 1399 1403 1406 1409 1411 1415
1482 1479 1476 1473 1469 1466 1462 1458 1455 1451 1446 1442 1437 1432 1427 1422 1417 1413 1409 1405 1402 1397 1393 1388 1384 1380 1376 1373 1372 1371 1371 1372 1373 1376 1380 1385 1389 1393 1397 1401 1404 1407 1410
1478 1476 1472 1469 1466 1462 1458 1454 1450 1446 1442 1437 1432 1426 1421 1416 1411 1406 1403 1399 1396 1391 1387 1382 1377 1373 1369 1366 1365 1364 1364 1366 1368 1371 1375 1380 1384 1388 1393 1397 1401 1404 1407
1475 1472 1469 1465 1462 1458 1454 1450 1446 1442 1437 1432 1426 1421 1415 1410 1405 1401 1397 1394 1390 1386 1381 1377 1372 1368 1364 1362 1360 1359 1360 1362 1365 1367 1371 1376 1381 1385 1390 1394 1398 1402 1405
1472 1469 1466 1462 1458 1454 1450 1446 1441 1437 1432 1427 1421 1416 1410 1405 1400 1397 1393 1389 1386 1382 1377 1373 1368 1364 1361 1358 1357 1356 1357 1360 1363 1366 1369 1373 1378 1383 1389 1393 1397 1401 1404
1469 1465 1462 1458 1454 1450 1446 1442 1437 1432 1428 1422 1417 1411 1405 1400 1396 1393 1390 1386 1382 1378 1374 1370 1366 1362 1360 1357 1356 1356 1357 1359 1362 1365 1368 1372 1377 1383 1387 1391 1395 1398 1402
1465 1462 1459 1455 1451 1446 1441 1437 1433 1428 1424 1418 1413 1407 1402 1397 1393 1389 1387 1383 1379 1375 1371 1367 1364 1361 1359 1358 1357 1357 1358 1360 1363 1365 1369 1373 1377 1382 1385 1389 1392 1395 1398
1462 1459 1455 1451 1447 1442 1437 1433 1429 1425 1420 1414 1409 1404 1399 1394 1390 1387 1383 1380 1376 1372 1368 1365 1361 1359 1358 1358 1357 1358 1359 1361 1364 1367 1370 1373 1377 1380 1384 1386 1389 1392 1395